STARLINK-3866, 52500

Orbit data source: Space-Track

STARLINK-3866, 52500 is a payload satellite owned by SpaceX/Seattle (US) in LEO that was launched on Fri, 06 May 2022 UTC via an FALCON 9 launch vehicle from the Air Force Eastern Test Range (AFETR). Payload-class satellites include a variety of spacecraft equipped with specific instruments for various scientific and technological missions. These include communications satellites like Starlink; space stations such as the ISS; scientific satellites like the Hubble; Earth observation satellites from companies like Planet Labs, Umbra, and HawkEye 360; GPS; miniature CubeSats for education and research; and military/defense satellites.

Loading next visibility...
Identifier
52500, 2022-049BB
Orbit
LEO
Country
Flag of USUS
Related business
Manufacturer
SpaceX/Seattle
Mission
Operational Commercial Communications
Bus & Motor
STARLINK, Unknown motor
Mass
297 kg wet, ~220 kg dry
Launch date (UTC)
2022-05-06 (4 years ago)
Launch vehicle
FALCON 9
Launch site
Air Force Eastern Test Range (AFETR)
Object type
Payload
Rocket body
Debris
Shape & HBR
Box + 1 Pan, 10.1 m
Radar Cross Section
13.562 m², Large (>1 m²)

Expand to show TLE details & history
Last TLE update: 12 hours ago

TLE from 12 hours ago
0 STARLINK-3866
1 52500U 22049BB  25346.94755714  .00000629  00000-0  57589-4 0  9996
2 52500  53.2165  68.5215 0001413  98.5482 261.5671 15.08835495199430
Epoch: 2025-12-12T22:44Z
TLE epoch observation values (Epoch: 2025-12-12T22:44:28.936Z)
Latitude
0.00001°
Longitude
5.51907°
Altitude
540.798 km
Speed
7.593 km/s
True Right ascension
04h 34m 05s
True Declination
0° 00' 00"
Sunlit
Object was in full shadow at epoch
Visualization orbit readout
Latitude
Unknown
Longitude
Unknown
Altitude
Unknown
Speed
Unknown
Apparent Right ascension
Unknown
Apparent Declination
Unknown
Sunlit
N/A
Visualization observer readout
Local Sidereal Time
09:19:33
Azimuth
Unknown
Elevation
Unknown
Doppler factor
Unknown
Orbital elements
Apogee altitude
540.98 km
Perigee altitude
539.025 km
Semi-major axis
6,918.139 km
Eccentricity
0.00014
Inclination
53.2165°
RAAN
68.5215°
Arg. of periapsis
98.5482°
True anomaly
261.55108°
Mean anomaly
261.5671°
Eccentric anomaly
261.55909°
Mean motion
3.77189 °/min
Orbital period
95.44 mins
BSTAR
0.000057589
Loading maneuver chart data...
Computing Atmospheric mass density...
Loading historical data...
Loading historical data...
Loading historical data...
Loading historical data...
Loading historical data...
Loading historical data...
Loading historical data...

Documentation

Showing up to 5 results
|